| time (UTC) | temp F | wind direction | speed knots | gust knots | rain 1hr in | rain 24hr in | rain mn in | humidity % | barometer mb |
| 20260906093615 | 73 | 0.0 | 0.0 | 0.00 | 0.28 | 0.07 | 94 | 1011.6 | |
| 20260906092435 | 74 | 113 | 0.9 | 0.9 | 0.00 | 0.28 | 0.07 | 95 | 1011.7 |
| 20260906091215 | 74 | 0.0 | 0.9 | 0.00 | 0.28 | 0.07 | 95 | 1011.7 | |
| 20260906090015 | 74 | 358 | 1.7 | 2.6 | 0.01 | 0.28 | 0.07 | 96 | 1011.6 |
| 20260906084855 | 74 | 0.0 | 0.9 | 0.01 | 0.28 | 0.07 | 95 | 1011.5 | |
| 20260906083615 | 74 | 0.0 | 0.0 | 0.01 | 0.28 | 0.07 | 95 | 1011.4 | |
| 20260906082455 | 74 | 328 | 0.0 | 0.9 | 0.01 | 0.28 | 0.07 | 95 | 1011.2 |
| 20260906081214 | 74 | 0.0 | 0.9 | 0.01 | 0.28 | 0.07 | 94 | 1011.3 | |
| 20260906080017 | 74 | 328 | 0.0 | 0.9 | 0.00 | 0.27 | 0.06 | 94 | 1011.4 |
| 20260906074816 | 74 | 0.0 | 0.0 | 0.00 | 0.27 | 0.06 | 94 | 1011.2 | |
| 20260906073617 | 74 | 328 | 0.0 | 0.9 | 0.01 | 0.27 | 0.06 | 94 | 1011.2 |
| 20260906072417 | 74 | 343 | 0.9 | 2.6 | 0.01 | 0.27 | 0.06 | 94 | 1011.2 |
| 20260906071217 | 74 | 340 | 1.7 | 4.3 | 0.01 | 0.27 | 0.06 | 94 | 1011.4 |
| 20260906070016 | 74 | 327 | 3.5 | 5.2 | 0.01 | 0.27 | 0.06 | 94 | 1011.4 |
| 20260906064816 | 75 | 339 | 2.6 | 4.3 | 0.02 | 0.27 | 0.06 | 94 | 1011.6 |
| 20260906063616 | 75 | 334 | 3.5 | 5.2 | 0.01 | 0.26 | 0.05 | 94 | 1011.7 |
| 20260906062416 | 75 | 341 | 2.6 | 3.5 | 0.01 | 0.26 | 0.05 | 95 | 1011.8 |
| 20260906061217 | 75 | 343 | 3.5 | 4.3 | 0.01 | 0.26 | 0.05 | 95 | 1011.9 |
| 20260906060016 | 75 | 323 | 1.7 | 2.6 | 0.02 | 0.26 | 0.05 | 95 | 1011.9 |
| 20260906054837 | 74 | 322 | 0.9 | 3.5 | 0.01 | 0.25 | 0.04 | 95 | 1012.0 |
| 20260906053636 | 74 | 335 | 1.7 | 3.5 | 0.02 | 0.25 | 0.04 | 96 | 1012.2 |
| 20260906052457 | 73 | 224 | 0.0 | 0.9 | 0.02 | 0.25 | 0.04 | 94 | 1012.3 |
| 20260906051216 | 74 | 0.0 | 0.9 | 0.03 | 0.25 | 0.04 | 94 | 1012.3 | |
| 20260906050016 | 74 | 75 | 0.0 | 0.9 | 0.03 | 0.24 | 0.03 | 94 | 1012.4 |
| 20260906044836 | 74 | 75 | 0.0 | 1.7 | 0.04 | 0.24 | 0.03 | 93 | 1012.4 |
| 20260906043616 | 74 | 318 | 0.0 | 0.9 | 0.04 | 0.23 | 0.02 | 94 | 1012.4 |
| 20260906042416 | 74 | 300 | 0.0 | 1.7 | 0.06 | 0.23 | 0.02 | 94 | 1012.3 |
| 20260906041216 | 74 | 333 | 0.9 | 2.6 | 0.10 | 0.22 | 0.01 | 92 | 1012.3 |
| 20260906040016 | 74 | 82 | 0.0 | 0.9 | 0.18 | 0.21 | 0.21 | 92 | 1012.2 |
| 20260906034815 | 74 | 183 | 0.9 | 2.6 | 0.20 | 0.20 | 0.20 | 93 | 1012.4 |
| 20260906033615 | 74 | 171 | 1.7 | 2.6 | 0.19 | 0.19 | 0.19 | 92 | 1012.6 |
| 20260906032437 | 75 | 4 | 0.0 | 1.7 | 0.17 | 0.17 | 0.17 | 90 | 1012.6 |
| 20260906031217 | 76 | 3 | 0.9 | 1.7 | 0.12 | 0.12 | 0.12 | 89 | 1012.7 |
| 20260906030014 | 78 | 110 | 1.7 | 2.6 | 0.03 | 0.03 | 0.03 | 83 | 1012.8 |
| 20260906024836 | 78 | 312 | 0.0 | 0.9 | 0.00 | 0.00 | 0.00 | 82 | 1012.9 |
| 20260906023617 | 78 | 3 | 0.9 | 2.6 | 0.00 | 0.00 | 0.00 | 83 | 1012.8 |
| 20260906022417 | 78 | 150 | 0.0 | 0.9 | 0.00 | 0.00 | 0.00 | 82 | 1012.5 |
| 20260906021237 | 79 | 0.0 | 0.0 | 0.00 | 0.00 | 0.00 | 81 | 1012.5 | |
| 20260906020017 | 79 | 0.0 | 0.9 | 0.00 | 0.00 | 0.00 | 81 | 1012.5 | |
| 20260906014816 | 79 | 0.0 | 0.0 | 0.00 | 0.00 | 0.00 | 82 | 1012.3 | |
| 20260906013616 | 79 | 0.0 | 0.9 | 0.00 | 0.00 | 0.00 | 81 | 1012.2 | |
| 20260906012417 | 79 | 0.0 | 0.9 | 0.00 | 0.00 | 0.00 | 81 | 1012.3 | |
| 20260906011216 | 79 | 150 | 0.0 | 2.6 | 0.00 | 0.00 | 0.00 | 81 | 1012.1 |
| 20260906010017 | 79 | 17 | 0.9 | 3.5 | 0.00 | 0.00 | 0.00 | 81 | 1011.6 |
| 20260906004816 | 80 | 41 | 0.0 | 1.7 | 0.00 | 0.00 | 0.00 | 81 | 1011.3 |
| 20260906003616 | 80 | 23 | 0.0 | 4.3 | 0.00 | 0.00 | 0.00 | 81 | 1011.4 |
| 20260906002416 | 80 | 40 | 0.9 | 1.7 | 0.00 | 0.00 | 0.00 | 80 | 1011.4 |
| 20260906001216 | 80 | 219 | 0.9 | 1.7 | 0.00 | 0.00 | 0.00 | 82 | 1011.5 |
| 20260906000016 | 82 | 118 | 0.9 | 1.7 | 0.00 | 0.00 | 0.00 | 76 | 1011.5 |
| 20260905234816 | 83 | 328 | 0.0 | 1.7 | 0.00 | 0.00 | 0.00 | 71 | 1011.5 |
| 20260905233636 | 84 | 104 | 0.9 | 2.6 | 0.00 | 0.00 | 0.00 | 66 | 1011.4 |
| 20260905232416 | 84 | 304 | 2.6 | 5.2 | 0.00 | 0.00 | 0.00 | 66 | 1011.4 |
| 20260905231217 | 84 | 306 | 0.9 | 2.6 | 0.00 | 0.00 | 0.00 | 67 | 1011.3 |
| 20260905230016 | 85 | 315 | 2.6 | 3.5 | 0.00 | 0.00 | 0.00 | 67 | 1011.1 |
| 20260905224816 | 85 | 307 | 0.9 | 2.6 | 0.00 | 0.00 | 0.00 | 64 | 1011.0 |
| 20260905223616 | 85 | 333 | 0.9 | 2.6 | 0.00 | 0.00 | 0.00 | 65 | 1011.2 |
| 20260905222416 | 86 | 359 | 3.5 | 10.4 | 0.00 | 0.00 | 0.00 | 63 | 1010.8 |
| 20260905221216 | 88 | 1 | 5.2 | 15.6 | 0.00 | 0.00 | 0.00 | 62 | 1010.9 |
| 20260905220016 | 88 | 356 | 4.3 | 13.0 | 0.00 | 0.00 | 0.00 | 60 | 1010.7 |
| 20260905214816 | 95 | 354 | 3.5 | 9.6 | 0.00 | 0.00 | 0.00 | 49 | 1010.6 |
| 20260905213616 | 100 | 87 | 0.9 | 3.5 | 0.00 | 0.00 | 0.00 | 47 | 1010.2 |
| 20260905212416 | 100 | 66 | 0.9 | 3.5 | 0.00 | 0.00 | 0.00 | 47 | 1010.4 |
| 20260905211216 | 99 | 155 | 0.9 | 3.5 | 0.00 | 0.00 | 0.00 | 45 | 1010.5 |
| 20260905210016 | 99 | 70 | 0.9 | 6.1 | 0.00 | 0.00 | 0.00 | 45 | 1010.6 |
| 20260905204816 | 99 | 159 | 0.9 | 2.6 | 0.00 | 0.00 | 0.00 | 47 | 1010.6 |
| 20260905203616 | 98 | 159 | 1.7 | 6.1 | 0.00 | 0.00 | 0.00 | 47 | 1010.6 |
| 20260905202416 | 99 | 274 | 1.7 | 3.5 | 0.00 | 0.00 | 0.00 | 45 | 1010.5 |
| 20260905201216 | 98 | 309 | 0.9 | 4.3 | 0.00 | 0.00 | 0.00 | 48 | 1010.6 |
| 20260905200016 | 98 | 139 | 1.7 | 3.5 | 0.00 | 0.00 | 0.00 | 47 | 1010.8 |
| 20260905194816 | 97 | 1 | 0.9 | 1.7 | 0.00 | 0.00 | 0.00 | 49 | 1010.9 |
| 20260905193616 | 97 | 338 | 1.7 | 3.5 | 0.00 | 0.00 | 0.00 | 48 | 1011.1 |
| 20260905192416 | 96 | 223 | 0.9 | 3.5 | 0.00 | 0.00 | 0.00 | 50 | 1011.2 |
| 20260905191216 | 95 | 8 | 4.3 | 6.1 | 0.00 | 0.00 | 0.00 | 52 | 1011.3 |
| 20260905190016 | 95 | 56 | 0.0 | 0.9 | 0.00 | 0.00 | 0.00 | 55 | 1011.5 |
| 20260905184816 | 96 | 102 | 0.9 | 4.3 | 0.00 | 0.00 | 0.00 | 54 | 1011.6 |
| 20260905183616 | 95 | 340 | 2.6 | 3.5 | 0.00 | 0.00 | 0.00 | 53 | 1011.9 |
| 20260905182415 | 97 | 353 | 1.7 | 7.0 | 0.00 | 0.00 | 0.00 | 51 | 1012.0 |
| 20260905181236 | 97 | 118 | 0.9 | 2.6 | 0.00 | 0.00 | 0.00 | 51 | 1012.2 |
| 20260905180015 | 96 | 96 | 0.9 | 2.6 | 0.00 | 0.00 | 0.00 | 53 | 1012.4 |
| 20260905174816 | 96 | 150 | 0.9 | 6.1 | 0.00 | 0.00 | 0.00 | 52 | 1012.5 |
| 20260905173616 | 96 | 357 | 0.9 | 3.5 | 0.00 | 0.00 | 0.00 | 54 | 1012.8 |
| 20260905172435 | 96 | 159 | 1.7 | 3.5 | 0.00 | 0.00 | 0.00 | 53 | 1012.8 |
| 20260905171216 | 95 | 210 | 0.9 | 3.5 | 0.00 | 0.00 | 0.00 | 52 | 1012.9 |
| 20260905170016 | 94 | 18 | 0.9 | 4.3 | 0.00 | 0.00 | 0.00 | 54 | 1013.2 |
| 20260905164815 | 95 | 314 | 0.9 | 3.5 | 0.00 | 0.00 | 0.00 | 56 | 1013.5 |
| 20260905163615 | 94 | 326 | 1.7 | 3.5 | 0.00 | 0.00 | 0.00 | 56 | 1013.7 |
| 20260905162416 | 94 | 244 | 0.9 | 3.5 | 0.00 | 0.00 | 0.00 | 56 | 1013.9 |
| 20260905161215 | 92 | 334 | 0.9 | 3.5 | 0.00 | 0.00 | 0.00 | 56 | 1014.1 |
| 20260905160016 | 91 | 171 | 0.9 | 3.5 | 0.00 | 0.00 | 0.00 | 62 | 1014.2 |
| 20260905154815 | 90 | 1 | 1.7 | 5.2 | 0.00 | 0.00 | 0.00 | 62 | 1014.3 |
| 20260905153615 | 91 | 320 | 0.9 | 2.6 | 0.00 | 0.00 | 0.00 | 64 | 1014.4 |
| 20260905152415 | 90 | 159 | 0.9 | 3.5 | 0.00 | 0.00 | 0.00 | 65 | 1014.4 |
| 20260905151215 | 89 | 104 | 0.0 | 1.7 | 0.00 | 0.00 | 0.00 | 70 | 1014.5 |
| 20260905150015 | 88 | 303 | 1.7 | 3.5 | 0.00 | 0.00 | 0.00 | 73 | 1014.7 |
| 20260905144815 | 86 | 26 | 0.9 | 1.7 | 0.00 | 0.00 | 0.00 | 73 | 1014.9 |
| 20260905143615 | 85 | 336 | 0.9 | 3.5 | 0.00 | 0.00 | 0.00 | 76 | 1015.0 |
| 20260905142415 | 84 | 343 | 1.7 | 2.6 | 0.00 | 0.00 | 0.00 | 79 | 1015.0 |
| 20260905141235 | 82 | 18 | 0.9 | 3.5 | 0.00 | 0.00 | 0.00 | 84 | 1015.1 |
| 20260905140035 | 80 | 103 | 0.0 | 2.6 | 0.00 | 0.00 | 0.00 | 89 | 1015.2 |
| 20260905134835 | 79 | 93 | 0.0 | 2.6 | 0.00 | 0.00 | 0.00 | 91 | 1015.0 |
| 20260905133615 | 77 | 135 | 0.0 | 1.7 | 0.00 | 0.00 | 0.00 | 93 | 1015.1 |
| 20260905132415 | 76 | 149 | 0.9 | 2.6 | 0.00 | 0.00 | 0.00 | 94 | 1015.0 |
| 20260905131215 | 76 | 162 | 0.9 | 2.6 | 0.00 | 0.00 | 0.00 | 95 | 1015.2 |
| 20260905130035 | 75 | 138 | 0.9 | 1.7 | 0.00 | 0.00 | 0.00 | 96 | 1015.2 |
| 20260905124815 | 74 | 114 | 0.0 | 1.7 | 0.00 | 0.00 | 0.00 | 96 | 1015.3 |
| 20260905123615 | 73 | 114 | 0.9 | 1.7 | 0.00 | 0.00 | 0.00 | 96 | 1015.3 |
| 20260905122415 | 73 | 114 | 0.0 | 0.9 | 0.00 | 0.00 | 0.00 | 96 | 1015.0 |
| 20260905121235 | 73 | 114 | 0.9 | 1.7 | 0.00 | 0.00 | 0.00 | 96 | 1014.9 |
| 20260905120015 | 73 | 114 | 0.0 | 0.9 | 0.00 | 0.00 | 0.00 | 96 | 1014.9 |
| 20260905114815 | 73 | 114 | 0.0 | 0.9 | 0.00 | 0.00 | 0.00 | 95 | 1014.9 |
| 20260905113615 | 73 | 0.0 | 0.9 | 0.00 | 0.00 | 0.00 | 95 | 1014.9 | |
| 20260905112415 | 73 | 114 | 0.0 | 0.9 | 0.00 | 0.00 | 0.00 | 95 | 1015.0 |
| 20260905111215 | 73 | 0.0 | 0.0 | 0.00 | 0.00 | 0.00 | 95 | 1014.9 | |
| 20260905110015 | 73 | 114 | 0.0 | 0.9 | 0.00 | 0.00 | 0.00 | 95 | 1014.6 |
| 20260905104815 | 73 | 0.0 | 0.0 | 0.00 | 0.00 | 0.00 | 94 | 1014.5 | |
| 20260905103615 | 73 | 0.0 | 0.0 | 0.00 | 0.00 | 0.00 | 94 | 1014.4 | |
| 20260905102415 | 73 | 0.0 | 0.0 | 0.00 | 0.00 | 0.00 | 94 | 1014.4 | |
| 20260905101215 | 73 | 0.0 | 0.0 | 0.00 | 0.00 | 0.00 | 94 | 1014.2 | |
| 20260905100015 | 73 | 114 | 0.0 | 0.9 | 0.00 | 0.00 | 0.00 | 93 | 1014.1 |
| 20260905094815 | 73 | 0.0 | 0.0 | 0.00 | 0.00 | 0.00 | 94 | 1014.1 |